| time (UTC) | temp F | wind direction | speed MPH | gust MPH | rain 1hr in | rain 24hr in | rain mn in | humidity % | barometer mb |
| 20260906154034 | 67 | 85 | 1.0 | 3.0 | 0.00 | 0.12 | 0.01 | 75 | 1016.0 |
| 20260906153531 | 67 | 0 | 0.0 | 3.0 | 0.00 | 0.12 | 0.01 | 76 | 1016.1 |
| 20260906153051 | 66 | 0 | 0.0 | 5.0 | 0.00 | 0.12 | 0.01 | 77 | 1016.1 |
| 20260906152530 | 66 | 0 | 0.0 | 5.0 | 0.00 | 0.12 | 0.01 | 78 | 1016.1 |
| 20260906152034 | 66 | 85 | 1.0 | 7.0 | 0.00 | 0.12 | 0.01 | 78 | 1016.1 |
| 20260906151546 | 66 | 85 | 1.0 | 10.0 | 0.00 | 0.12 | 0.01 | 79 | 1016.1 |
| 20260906151033 | 66 | 85 | 1.0 | 10.0 | 0.00 | 0.12 | 0.01 | 77 | 1016.1 |
| 20260906150531 | 66 | 0 | 4.0 | 8.0 | 0.01 | 0.12 | 0.01 | 75 | 1016.1 |
| 20260906150051 | 66 | 83 | 2.0 | 8.0 | 0.01 | 0.12 | 0.01 | 76 | 1016.0 |
| 20260906145537 | 65 | 82 | 2.0 | 11.0 | 0.01 | 0.12 | 0.01 | 78 | 1016.0 |
| 20260906145034 | 65 | 0 | 3.0 | 11.0 | 0.01 | 0.12 | 0.01 | 80 | 1016.0 |
| 20260906144548 | 65 | 82 | 2.0 | 11.0 | 0.01 | 0.12 | 0.01 | 83 | 1016.0 |
| 20260906144031 | 64 | 75 | 2.0 | 9.0 | 0.01 | 0.12 | 0.01 | 84 | 1015.9 |
| 20260906143537 | 64 | 75 | 1.0 | 9.0 | 0.01 | 0.12 | 0.01 | 84 | 1016.0 |
| 20260906143051 | 64 | 75 | 1.0 | 8.0 | 0.01 | 0.12 | 0.01 | 86 | 1016.0 |
| 20260906142530 | 64 | 75 | 2.0 | 8.0 | 0.01 | 0.12 | 0.01 | 84 | 1015.9 |
| 20260906142031 | 64 | 75 | 2.0 | 8.0 | 0.01 | 0.12 | 0.01 | 84 | 1016.0 |
| 20260906141545 | 64 | 76 | 2.0 | 7.0 | 0.01 | 0.12 | 0.01 | 83 | 1015.9 |
| 20260906141031 | 65 | 76 | 2.0 | 7.0 | 0.01 | 0.12 | 0.01 | 82 | 1016.0 |
| 20260906140532 | 65 | 76 | 1.0 | 7.0 | 0.00 | 0.11 | 0.00 | 82 | 1015.9 |
| 20260906140103 | 65 | 0 | 0.0 | 5.0 | 0.00 | 0.11 | 0.00 | 82 | 1016.0 |
| 20260906135532 | 65 | 76 | 1.0 | 8.0 | 0.00 | 0.11 | 0.00 | 82 | 1016.0 |
| 20260906135033 | 65 | 76 | 2.0 | 8.0 | 0.00 | 0.11 | 0.00 | 82 | 1015.9 |
| 20260906134550 | 65 | 79 | 2.0 | 7.0 | 0.00 | 0.11 | 0.00 | 83 | 1015.9 |
| 20260906134034 | 65 | 79 | 1.0 | 7.0 | 0.00 | 0.11 | 0.00 | 82 | 1015.9 |
| 20260906133531 | 65 | 80 | 1.0 | 7.0 | 0.00 | 0.11 | 0.00 | 82 | 1015.8 |
| 20260906133047 | 65 | 80 | 1.0 | 5.0 | 0.00 | 0.11 | 0.00 | 82 | 1015.8 |
| 20260906132531 | 65 | 80 | 1.0 | 8.0 | 0.00 | 0.11 | 0.00 | 81 | 1015.8 |
| 20260906132032 | 65 | 80 | 1.0 | 8.0 | 0.00 | 0.11 | 0.00 | 81 | 1015.8 |
| 20260906131605 | 65 | 80 | 1.0 | 7.0 | 0.00 | 0.11 | 0.00 | 82 | 1015.7 |
| 20260906131034 | 65 | 80 | 2.0 | 7.0 | 0.00 | 0.11 | 0.00 | 82 | 1015.7 |
| 20260906130533 | 65 | 80 | 1.0 | 5.0 | 0.00 | 0.11 | 0.00 | 81 | 1015.8 |
| 20260906130056 | 65 | 0 | 1.0 | 5.0 | 0.00 | 0.11 | 0.00 | 81 | 1015.7 |
| 20260906125537 | 65 | 0 | 0.0 | 5.0 | 0.00 | 0.11 | 0.00 | 82 | 1015.6 |
| 20260906125035 | 65 | 80 | 1.0 | 5.0 | 0.00 | 0.11 | 0.00 | 82 | 1015.5 |
| 20260906124559 | 65 | 80 | 1.0 | 4.0 | 0.00 | 0.11 | 0.00 | 82 | 1015.5 |
| 20260906124032 | 65 | 0 | 1.0 | 7.0 | 0.00 | 0.11 | 0.00 | 81 | 1015.5 |
| 20260906123530 | 65 | 80 | 1.0 | 7.0 | 0.00 | 0.11 | 0.00 | 82 | 1015.4 |
| 20260906123050 | 65 | 82 | 0.0 | 4.0 | 0.00 | 0.11 | 0.00 | 83 | 1015.4 |
| 20260906122531 | 65 | 82 | 1.0 | 4.0 | 0.00 | 0.11 | 0.00 | 83 | 1015.3 |
| 20260906122030 | 64 | 82 | 0.0 | 4.0 | 0.00 | 0.11 | 0.00 | 84 | 1015.1 |
| 20260906121555 | 64 | 82 | 0.0 | 8.0 | 0.00 | 0.11 | 0.00 | 83 | 1015.1 |
| 20260906121036 | 64 | 82 | 2.0 | 8.0 | 0.00 | 0.11 | 0.00 | 83 | 1015.0 |
| 20260906120535 | 64 | 72 | 1.0 | 8.0 | 0.00 | 0.11 | 0.00 | 83 | 1015.0 |
| 20260906120059 | 64 | 72 | 1.0 | 8.0 | 0.00 | 0.11 | 0.00 | 83 | 1015.0 |
| 20260906115532 | 64 | 0 | 1.0 | 7.0 | 0.00 | 0.11 | 0.00 | 84 | 1015.0 |
| 20260906115032 | 65 | 73 | 1.0 | 4.0 | 0.00 | 0.11 | 0.00 | 84 | 1015.1 |
| 20260906114552 | 65 | 22 | 0.0 | 4.0 | 0.00 | 0.11 | 0.00 | 84 | 1014.9 |
| 20260906114031 | 65 | 22 | 1.0 | 4.0 | 0.00 | 0.11 | 0.00 | 83 | 1015.0 |
| 20260906113533 | 65 | 22 | 2.0 | 6.0 | 0.00 | 0.11 | 0.00 | 84 | 1015.0 |
| 20260906113057 | 65 | 22 | 3.0 | 6.0 | 0.00 | 0.11 | 0.00 | 84 | 1015.0 |
| 20260906112530 | 65 | 23 | 3.0 | 5.0 | 0.00 | 0.11 | 0.00 | 84 | 1014.9 |
| 20260906112032 | 65 | 24 | 2.0 | 11.0 | 0.00 | 0.11 | 0.00 | 83 | 1014.9 |
| 20260906111542 | 65 | 24 | 2.0 | 11.0 | 0.00 | 0.11 | 0.00 | 85 | 1014.8 |
| 20260906111031 | 64 | 103 | 1.0 | 4.0 | 0.00 | 0.11 | 0.00 | 86 | 1014.7 |
| 20260906110530 | 64 | 103 | 0.0 | 2.0 | 0.00 | 0.11 | 0.00 | 84 | 1014.6 |
| 20260906110052 | 64 | 0 | 0.0 | 2.0 | 0.00 | 0.11 | 0.00 | 85 | 1014.4 |
| 20260906105533 | 64 | 0 | 0.0 | 2.0 | 0.00 | 0.11 | 0.00 | 84 | 1014.2 |
| 20260906105034 | 64 | 103 | 0.0 | 3.0 | 0.00 | 0.11 | 0.00 | 85 | 1014.2 |
| 20260906104548 | 64 | 0 | 0.0 | 3.0 | 0.00 | 0.11 | 0.00 | 85 | 1014.1 |
| 20260906104034 | 64 | 103 | 0.0 | 6.0 | 0.00 | 0.11 | 0.00 | 85 | 1014.1 |
| 20260906103533 | 64 | 103 | 0.0 | 6.0 | 0.00 | 0.11 | 0.00 | 85 | 1014.0 |
| 20260906103046 | 63 | 103 | 1.0 | 6.0 | 0.00 | 0.11 | 0.00 | 86 | 1014.0 |
| 20260906102531 | 63 | 103 | 0.0 | 6.0 | 0.00 | 0.11 | 0.00 | 86 | 1014.0 |
| 20260906102030 | 63 | 0 | 0.0 | 4.0 | 0.00 | 0.11 | 0.00 | 86 | 1013.9 |
| 20260906101544 | 62 | 0 | 1.0 | 3.0 | 0.00 | 0.11 | 0.00 | 85 | 1014.0 |
| 20260906101031 | 62 | 103 | 0.0 | 3.0 | 0.00 | 0.11 | 0.00 | 83 | 1013.8 |
| 20260906100535 | 62 | 0 | 0.0 | 2.0 | 0.00 | 0.11 | 0.00 | 83 | 1013.8 |
| 20260906100048 | 63 | 0 | 0.0 | 2.0 | 0.00 | 0.11 | 0.00 | 82 | 1013.8 |
| 20260906095533 | 63 | 0 | 0.0 | 6.0 | 0.00 | 0.11 | 0.00 | 82 | 1013.7 |
| 20260906095034 | 63 | 103 | 1.0 | 6.0 | 0.00 | 0.11 | 0.00 | 82 | 1013.7 |
| 20260906094546 | 63 | 103 | 0.0 | 6.0 | 0.00 | 0.11 | 0.00 | 81 | 1013.6 |
| 20260906094030 | 63 | 0 | 1.0 | 4.0 | 0.00 | 0.11 | 0.00 | 81 | 1013.6 |
| 20260906093534 | 63 | 103 | 1.0 | 4.0 | 0.00 | 0.11 | 0.00 | 81 | 1013.7 |
| 20260906093054 | 64 | 0 | 1.0 | 3.0 | 0.00 | 0.11 | 0.00 | 82 | 1013.6 |
| 20260906092533 | 64 | 103 | 1.0 | 7.0 | 0.00 | 0.11 | 0.00 | 82 | 1013.6 |
| 20260906092034 | 64 | 103 | 1.0 | 7.0 | 0.00 | 0.11 | 0.00 | 82 | 1013.5 |
| 20260906091552 | 64 | 103 | 1.0 | 6.0 | 0.00 | 0.11 | 0.00 | 82 | 1013.5 |
| 20260906091031 | 64 | 0 | 1.0 | 4.0 | 0.00 | 0.11 | 0.00 | 83 | 1013.3 |
| 20260906090532 | 64 | 103 | 1.0 | 4.0 | 0.00 | 0.11 | 0.00 | 84 | 1013.3 |
| 20260906090055 | 64 | 103 | 0.0 | 6.0 | 0.00 | 0.11 | 0.00 | 84 | 1013.2 |
| 20260906085536 | 64 | 103 | 1.0 | 7.0 | 0.00 | 0.11 | 0.00 | 87 | 1013.3 |
| 20260906085031 | 63 | 103 | 0.0 | 7.0 | 0.00 | 0.11 | 0.00 | 85 | 1013.3 |
| 20260906084553 | 63 | 0 | 2.0 | 7.0 | 0.00 | 0.11 | 0.00 | 85 | 1013.2 |
| 20260906084031 | 63 | 0 | 1.0 | 6.0 | 0.00 | 0.11 | 0.00 | 85 | 1013.1 |
| 20260906083534 | 64 | 108 | 0.0 | 7.0 | 0.00 | 0.11 | 0.00 | 84 | 1013.1 |
| 20260906083045 | 64 | 108 | 1.0 | 7.0 | 0.00 | 0.11 | 0.00 | 85 | 1013.1 |
| 20260906082531 | 64 | 0 | 1.0 | 7.0 | 0.00 | 0.11 | 0.00 | 85 | 1013.1 |
| 20260906082032 | 64 | 109 | 0.0 | 6.0 | 0.00 | 0.11 | 0.00 | 85 | 1013.1 |
| 20260906081546 | 64 | 109 | 0.0 | 6.0 | 0.00 | 0.11 | 0.00 | 86 | 1013.0 |
| 20260906081031 | 63 | 109 | 0.0 | 2.0 | 0.00 | 0.11 | 0.00 | 87 | 1013.0 |
| 20260906080530 | 63 | 109 | 0.0 | 2.0 | 0.00 | 0.11 | 0.00 | 88 | 1013.1 |
| 20260906080058 | 63 | 0 | 0.0 | 2.0 | 0.00 | 0.11 | 0.00 | 87 | 1013.1 |
| 20260906075531 | 63 | 0 | 0.0 | 2.0 | 0.00 | 0.11 | 0.00 | 87 | 1013.0 |
| 20260906075036 | 63 | 0 | 0.0 | 4.0 | 0.00 | 0.11 | 0.00 | 87 | 1013.0 |
| 20260906074548 | 63 | 0 | 0.0 | 4.0 | 0.00 | 0.11 | 0.00 | 88 | 1013.0 |
| 20260906074033 | 63 | 0 | 1.0 | 4.0 | 0.00 | 0.11 | 0.00 | 89 | 1013.0 |
| 20260906073534 | 62 | 0 | 0.0 | 2.0 | 0.00 | 0.11 | 0.00 | 89 | 1013.1 |
| 20260906073047 | 62 | 0 | 0.0 | 2.0 | 0.00 | 0.11 | 0.00 | 89 | 1013.0 |
| 20260906072531 | 62 | 0 | 0.0 | 2.0 | 0.00 | 0.11 | 0.00 | 90 | 1012.9 |
| 20260906072033 | 62 | 0 | 0.0 | 0.0 | 0.00 | 0.11 | 0.00 | 90 | 1013.0 |
| 20260906071545 | 62 | 0 | 0.0 | 0.0 | 0.00 | 0.11 | 0.00 | 90 | 1012.9 |
| 20260906071030 | 62 | 0 | 0.0 | 0.0 | 0.00 | 0.11 | 0.00 | 90 | 1012.8 |
| 20260906070531 | 62 | 0 | 0.0 | 0.0 | 0.00 | 0.11 | 0.00 | 89 | 1012.9 |
| 20260906070041 | 62 | 0 | 0.0 | 0.0 | 0.00 | 0.11 | 0.00 | 89 | 1012.8 |
| 20260906065531 | 62 | 0 | 0.0 | 0.0 | 0.00 | 0.11 | 0.00 | 89 | 1012.9 |
| 20260906065031 | 62 | 0 | 0.0 | 0.0 | 0.00 | 0.11 | 0.00 | 89 | 1013.0 |
| 20260906064548 | 63 | 0 | 0.0 | 0.0 | 0.00 | 0.11 | 0.00 | 89 | 1013.1 |
| 20260906064031 | 63 | 0 | 0.0 | 0.0 | 0.00 | 0.11 | 0.00 | 89 | 1012.9 |
| 20260906063533 | 63 | 0 | 0.0 | 1.0 | 0.00 | 0.11 | 0.00 | 89 | 1013.0 |
| 20260906063047 | 63 | 0 | 0.0 | 2.0 | 0.00 | 0.11 | 0.00 | 88 | 1013.1 |
| 20260906062533 | 63 | 109 | 0.0 | 2.0 | 0.00 | 0.11 | 0.00 | 88 | 1013.1 |
| 20260906062035 | 63 | 0 | 0.0 | 0.0 | 0.00 | 0.11 | 0.00 | 89 | 1013.1 |
| 20260906061546 | 63 | 0 | 0.0 | 2.0 | 0.00 | 0.11 | 0.00 | 89 | 1013.1 |
| 20260906061034 | 63 | 0 | 0.0 | 2.0 | 0.00 | 0.11 | 0.00 | 89 | 1013.1 |
| 20260906060530 | 62 | 0 | 0.0 | 0.0 | 0.00 | 0.11 | 0.00 | 90 | 1013.2 |
| 20260906055531 | 62 | 0 | 0.0 | 0.0 | 0.00 | 0.11 | 0.00 | 89 | 1013.1 |
| 20260906055034 | 62 | 0 | 0.0 | 0.0 | 0.00 | 0.11 | 0.00 | 90 | 1013.2 |
| 20260906054550 | 63 | 0 | 0.0 | 0.0 | 0.00 | 0.11 | 0.00 | 90 | 1013.2 |
| 20260906054034 | 63 | 0 | 0.0 | 0.0 | 0.00 | 0.11 | 0.00 | 90 | 1013.2 |
| 20260906053533 | 63 | 0 | 0.0 | 2.0 | 0.00 | 0.11 | 0.00 | 90 | 1013.3 |
| 20260906053047 | 63 | 0 | 0.0 | 2.0 | 0.00 | 0.11 | 0.00 | 89 | 1013.4 |
| 20260906052536 | 63 | 0 | 0.0 | 2.0 | 0.00 | 0.11 | 0.00 | 89 | 1013.4 |
| 20260906052031 | 63 | 109 | 1.0 | 2.0 | 0.00 | 0.11 | 0.00 | 89 | 1013.4 |
| 20260906051550 | 63 | 109 | 0.0 | 3.0 | 0.00 | 0.11 | 0.00 | 89 | 1013.3 |
| 20260906051031 | 63 | 109 | 0.0 | 3.0 | 0.00 | 0.11 | 0.00 | 89 | 1013.4 |
| 20260906050530 | 63 | 0 | 0.0 | 0.0 | 0.00 | 0.11 | 0.00 | 89 | 1013.5 |
| 20260906050105 | 63 | 0 | 0.0 | 0.0 | 0.00 | 0.11 | 0.00 | 89 | 1013.6 |
| 20260906045536 | 63 | 0 | 0.0 | 0.0 | 0.00 | 0.11 | 0.00 | 89 | 1013.6 |
| 20260906045034 | 63 | 0 | 0.0 | 2.0 | 0.00 | 0.11 | 0.00 | 88 | 1013.7 |
| 20260906044548 | 63 | 0 | 0.0 | 2.0 | 0.00 | 0.11 | 0.00 | 88 | 1013.7 |
| 20260906044035 | 63 | 0 | 0.0 | 2.0 | 0.00 | 0.11 | 0.00 | 87 | 1013.7 |
| 20260906043531 | 63 | 0 | 0.0 | 4.0 | 0.00 | 0.11 | 0.00 | 86 | 1013.5 |
| 20260906043056 | 63 | 109 | 1.0 | 4.0 | 0.00 | 0.11 | 0.00 | 86 | 1013.5 |
| 20260906042530 | 63 | 109 | 1.0 | 3.0 | 0.00 | 0.11 | 0.00 | 86 | 1013.4 |
| 20260906042031 | 63 | 0 | 0.0 | 2.0 | 0.00 | 0.11 | 0.00 | 86 | 1013.3 |
| 20260906041554 | 63 | 0 | 0.0 | 3.0 | 0.00 | 0.11 | 0.00 | 86 | 1013.2 |
| 20260906041033 | 63 | 109 | 0.0 | 6.0 | 0.00 | 0.11 | 0.00 | 85 | 1013.1 |
| 20260906040534 | 63 | 109 | 1.0 | 6.0 | 0.01 | 0.11 | 0.00 | 85 | 1013.3 |
| 20260906040053 | 63 | 0 | 2.0 | 7.0 | 0.01 | 0.11 | 0.00 | 84 | 1013.4 |
| 20260906035533 | 63 | 109 | 1.0 | 7.0 | 0.01 | 0.11 | 0.11 | 85 | 1013.4 |
| 20260906035034 | 63 | 111 | 1.0 | 6.0 | 0.01 | 0.11 | 0.11 | 87 | 1013.3 |
| 20260906034547 | 64 | 0 | 0.0 | 3.0 | 0.01 | 0.11 | 0.11 | 89 | 1013.3 |
| 20260906034035 | 64 | 0 | 1.0 | 3.0 | 0.01 | 0.11 | 0.11 | 88 | 1013.3 |
| 20260906033533 | 64 | 113 | 0.0 | 2.0 | 0.01 | 0.11 | 0.11 | 88 | 1013.4 |
| 20260906033046 | 64 | 0 | 0.0 | 6.0 | 0.01 | 0.11 | 0.11 | 88 | 1013.4 |
| 20260906032530 | 64 | 0 | 0.0 | 6.0 | 0.01 | 0.11 | 0.11 | 88 | 1013.2 |
| 20260906032031 | 64 | 0 | 0.0 | 6.0 | 0.01 | 0.11 | 0.11 | 88 | 1013.2 |
| 20260906031557 | 64 | 112 | 1.0 | 8.0 | 0.01 | 0.11 | 0.11 | 88 | 1013.2 |
| 20260906031033 | 64 | 0 | 0.0 | 8.0 | 0.00 | 0.10 | 0.10 | 88 | 1013.2 |
| 20260906030530 | 64 | 112 | 0.0 | 8.0 | 0.00 | 0.10 | 0.10 | 88 | 1013.1 |
| 20260906030059 | 64 | 0 | 0.0 | 7.0 | 0.00 | 0.10 | 0.10 | 87 | 1013.0 |
| 20260906025531 | 64 | 112 | 2.0 | 9.0 | 0.00 | 0.10 | 0.10 | 87 | 1013.1 |
| 20260906025034 | 64 | 112 | 2.0 | 9.0 | 0.00 | 0.10 | 0.10 | 87 | 1013.1 |
| 20260906024556 | 64 | 112 | 2.0 | 9.0 | 0.00 | 0.10 | 0.10 | 87 | 1013.0 |
| 20260906024030 | 64 | 71 | 2.0 | 9.0 | 0.00 | 0.10 | 0.10 | 88 | 1013.0 |
| 20260906023534 | 65 | 0 | 0.0 | 5.0 | 0.00 | 0.10 | 0.10 | 88 | 1013.1 |
| 20260906023055 | 65 | 0 | 0.0 | 7.0 | 0.00 | 0.10 | 0.10 | 88 | 1013.0 |
| 20260906022532 | 65 | 294 | 1.0 | 7.0 | 0.00 | 0.10 | 0.10 | 88 | 1013.0 |
| 20260906022040 | 65 | 0 | 2.0 | 7.0 | 0.00 | 0.10 | 0.10 | 89 | 1013.0 |
| 20260906021600 | 65 | 294 | 2.0 | 7.0 | 0.00 | 0.10 | 0.10 | 89 | 1013.0 |
| 20260906021030 | 65 | 294 | 1.0 | 5.0 | 0.00 | 0.10 | 0.10 | 90 | 1013.0 |
| 20260906020531 | 65 | 294 | 1.0 | 7.0 | 0.00 | 0.10 | 0.10 | 89 | 1013.0 |
| 20260906020055 | 65 | 296 | 2.0 | 7.0 | 0.00 | 0.10 | 0.10 | 89 | 1012.8 |
| 20260906015535 | 65 | 295 | 2.0 | 7.0 | 0.00 | 0.10 | 0.10 | 90 | 1012.9 |
| 20260906015033 | 65 | 0 | 1.0 | 7.0 | 0.00 | 0.10 | 0.10 | 90 | 1012.9 |
| 20260906014559 | 65 | 0 | 1.0 | 7.0 | 0.00 | 0.10 | 0.10 | 90 | 1012.8 |
| 20260906014038 | 65 | 297 | 3.0 | 7.0 | 0.00 | 0.10 | 0.10 | 90 | 1012.7 |
| 20260906013530 | 65 | 297 | 1.0 | 7.0 | 0.00 | 0.10 | 0.10 | 90 | 1012.5 |
| 20260906013049 | 65 | 297 | 3.0 | 7.0 | 0.00 | 0.10 | 0.10 | 90 | 1012.7 |
| 20260906012530 | 65 | 302 | 2.0 | 7.0 | 0.00 | 0.10 | 0.10 | 91 | 1012.6 |
| 20260906012036 | 65 | 302 | 2.0 | 7.0 | 0.00 | 0.10 | 0.10 | 92 | 1012.6 |
| 20260906011602 | 65 | 302 | 2.0 | 4.0 | 0.00 | 0.10 | 0.10 | 92 | 1012.5 |
| 20260906011032 | 65 | 302 | 1.0 | 3.0 | 0.00 | 0.10 | 0.10 | 92 | 1012.5 |
| 20260906010531 | 65 | 0 | 0.0 | 2.0 | 0.00 | 0.10 | 0.10 | 92 | 1012.4 |
| 20260906010047 | 65 | 302 | 0.0 | 0.0 | 0.00 | 0.10 | 0.10 | 91 | 1012.4 |
| 20260906005530 | 65 | 0 | 0.0 | 0.0 | 0.00 | 0.10 | 0.10 | 91 | 1012.3 |
| 20260906005034 | 65 | 0 | 0.0 | 0.0 | 0.00 | 0.10 | 0.10 | 91 | 1012.3 |
| 20260906004554 | 65 | 0 | 0.0 | 0.0 | 0.00 | 0.10 | 0.10 | 91 | 1012.2 |
| 20260906004034 | 65 | 0 | 0.0 | 0.0 | 0.01 | 0.10 | 0.10 | 91 | 1012.2 |
| 20260906003532 | 66 | 0 | 0.0 | 3.0 | 0.04 | 0.10 | 0.10 | 91 | 1012.1 |
| 20260906003049 | 66 | 0 | 0.0 | 3.0 | 0.05 | 0.10 | 0.10 | 91 | 1012.0 |
| 20260906002532 | 66 | 0 | 0.0 | 3.0 | 0.06 | 0.10 | 0.10 | 91 | 1011.8 |
| 20260906002031 | 66 | 0 | 1.0 | 3.0 | 0.06 | 0.10 | 0.10 | 91 | 1011.8 |
| 20260906001548 | 66 | 302 | 2.0 | 3.0 | 0.07 | 0.10 | 0.10 | 91 | 1011.7 |
| 20260906001033 | 66 | 302 | 1.0 | 3.0 | 0.07 | 0.10 | 0.10 | 91 | 1011.9 |
| 20260906000533 | 66 | 302 | 0.0 | 5.0 | 0.07 | 0.10 | 0.10 | 90 | 1011.9 |
| 20260906000057 | 66 | 302 | 1.0 | 5.0 | 0.07 | 0.10 | 0.10 | 90 | 1011.8 |
| 20260905235533 | 66 | 302 | 1.0 | 3.0 | 0.08 | 0.10 | 0.10 | 90 | 1011.7 |
| 20260905235031 | 67 | 302 | 0.0 | 4.0 | 0.08 | 0.10 | 0.10 | 90 | 1011.9 |
| 20260905234553 | 67 | 0 | 0.0 | 5.0 | 0.09 | 0.10 | 0.10 | 89 | 1011.8 |
| 20260905234033 | 67 | 302 | 1.0 | 5.0 | 0.07 | 0.08 | 0.08 | 89 | 1011.8 |
| 20260905233530 | 67 | 302 | 0.0 | 4.0 | 0.05 | 0.06 | 0.06 | 88 | 1011.7 |
| 20260905233105 | 67 | 302 | 1.0 | 3.0 | 0.04 | 0.05 | 0.05 | 88 | 1011.6 |
| 20260905232533 | 67 | 0 | 1.0 | 8.0 | 0.03 | 0.04 | 0.04 | 88 | 1011.5 |
| 20260905232032 | 67 | 302 | 3.0 | 8.0 | 0.03 | 0.04 | 0.04 | 87 | 1011.6 |
| 20260905231558 | 68 | 302 | 3.0 | 7.0 | 0.03 | 0.03 | 0.03 | 87 | 1011.5 |
| 20260905231033 | 68 | 0 | 1.0 | 4.0 | 0.03 | 0.03 | 0.03 | 87 | 1011.4 |
| 20260905230533 | 68 | 0 | 0.0 | 4.0 | 0.03 | 0.03 | 0.03 | 86 | 1011.4 |
| 20260905230058 | 68 | 305 | 1.0 | 4.0 | 0.02 | 0.02 | 0.02 | 86 | 1011.3 |
| 20260905225531 | 69 | 0 | 0.0 | 7.0 | 0.02 | 0.02 | 0.02 | 86 | 1011.3 |
| 20260905225030 | 69 | 0 | 1.0 | 7.0 | 0.02 | 0.02 | 0.02 | 85 | 1011.3 |
| 20260905224606 | 69 | 305 | 2.0 | 7.0 | 0.01 | 0.01 | 0.01 | 83 | 1011.3 |
| 20260905224122 | 69 | 0 | 0.0 | 0.0 | 0.01 | 0.01 | 0.01 | 84 | 1011.5 |
| 20260905223532 | 69 | 0 | 0.0 | 3.0 | 0.01 | 0.01 | 0.01 | 84 | 1011.3 |
| 20260905223048 | 70 | 0 | 0.0 | 3.0 | 0.01 | 0.01 | 0.01 | 84 | 1011.2 |
| 20260905222533 | 70 | 305 | 1.0 | 3.0 | 0.01 | 0.01 | 0.01 | 84 | 1011.1 |
| 20260905222036 | 70 | 305 | 0.0 | 3.0 | 0.01 | 0.01 | 0.01 | 84 | 1011.1 |
| 20260905221553 | 70 | 0 | 0.0 | 0.0 | 0.00 | 0.00 | 0.00 | 83 | 1011.2 |
| 20260905221035 | 70 | 0 | 0.0 | 1.0 | 0.00 | 0.00 | 0.00 | 83 | 1011.2 |
| 20260905220532 | 70 | 0 | 0.0 | 1.0 | 0.00 | 0.00 | 0.00 | 82 | 1011.0 |
| 20260905220051 | 70 | 0 | 0.0 | 3.0 | 0.00 | 0.00 | 0.00 | 81 | 1010.9 |
| 20260905215530 | 71 | 0 | 0.0 | 4.0 | 0.00 | 0.00 | 0.00 | 82 | 1010.9 |
| 20260905215030 | 71 | 0 | 1.0 | 4.0 | 0.00 | 0.00 | 0.00 | 82 | 1010.9 |
| 20260905214546 | 71 | 0 | 0.0 | 0.0 | 0.00 | 0.00 | 0.00 | 83 | 1010.7 |
| 20260905214032 | 71 | 0 | 0.0 | 0.0 | 0.00 | 0.00 | 0.00 | 82 | 1010.8 |
| 20260905213534 | 71 | 0 | 0.0 | 0.0 | 0.00 | 0.00 | 0.00 | 82 | 1010.7 |
| 20260905213056 | 71 | 0 | 0.0 | 0.0 | 0.00 | 0.00 | 0.00 | 81 | 1010.6 |
| 20260905212534 | 71 | 0 | 0.0 | 5.0 | 0.00 | 0.00 | 0.00 | 82 | 1010.4 |
| 20260905212033 | 71 | 0 | 0.0 | 7.0 | 0.00 | 0.00 | 0.00 | 78 | 1010.4 |
| 20260905211551 | 72 | 305 | 4.0 | 8.0 | 0.00 | 0.00 | 0.00 | 78 | 1010.5 |
| 20260905211031 | 72 | 305 | 6.0 | 8.0 | 0.00 | 0.00 | 0.00 | 76 | 1010.4 |
| 20260905210534 | 73 | 306 | 5.0 | 8.0 | 0.00 | 0.00 | 0.00 | 76 | 1010.4 |
| 20260905210053 | 73 | 0 | 0.0 | 2.0 | 0.00 | 0.00 | 0.00 | 74 | 1010.3 |
| 20260905205534 | 73 | 0 | 0.0 | 2.0 | 0.00 | 0.00 | 0.00 | 74 | 1010.3 |
| 20260905205034 | 73 | 305 | 1.0 | 4.0 | 0.00 | 0.00 | 0.00 | 73 | 1010.3 |
| 20260905204557 | 73 | 305 | 2.0 | 5.0 | 0.00 | 0.00 | 0.00 | 73 | 1010.2 |
| 20260905204030 | 73 | 305 | 3.0 | 5.0 | 0.00 | 0.00 | 0.00 | 74 | 1010.1 |
| 20260905203535 | 73 | 305 | 4.0 | 5.0 | 0.00 | 0.00 | 0.00 | 73 | 1010.2 |
| 20260905203053 | 73 | 305 | 3.0 | 7.0 | 0.00 | 0.00 | 0.00 | 72 | 1010.1 |
| 20260905202533 | 73 | 305 | 3.0 | 8.0 | 0.00 | 0.00 | 0.00 | 73 | 1010.2 |
| 20260905202033 | 73 | 305 | 5.0 | 9.0 | 0.00 | 0.00 | 0.00 | 72 | 1010.2 |
| 20260905201606 | 73 | 305 | 5.0 | 9.0 | 0.00 | 0.00 | 0.00 | 73 | 1010.0 |
| 20260905201038 | 74 | 305 | 6.0 | 9.0 | 0.00 | 0.00 | 0.00 | 72 | 1010.0 |
| 20260905200530 | 74 | 305 | 7.0 | 9.0 | 0.00 | 0.00 | 0.00 | 73 | 1010.0 |
| 20260905200051 | 74 | 305 | 5.0 | 8.0 | 0.00 | 0.00 | 0.00 | 72 | 1010.0 |
| 20260905195533 | 74 | 305 | 3.0 | 8.0 | 0.00 | 0.00 | 0.00 | 69 | 1010.0 |
| 20260905195031 | 74 | 305 | 6.0 | 8.0 | 0.00 | 0.00 | 0.00 | 70 | 1009.9 |
| 20260905194557 | 74 | 305 | 5.0 | 8.0 | 0.00 | 0.00 | 0.00 | 72 | 1010.0 |
| 20260905194033 | 74 | 305 | 5.0 | 8.0 | 0.00 | 0.00 | 0.00 | 71 | 1009.9 |
| 20260905193531 | 74 | 305 | 5.0 | 8.0 | 0.00 | 0.00 | 0.00 | 72 | 1009.9 |
| 20260905193054 | 74 | 305 | 4.0 | 8.0 | 0.00 | 0.00 | 0.00 | 73 | 1010.0 |
| 20260905192533 | 75 | 305 | 4.0 | 9.0 | 0.00 | 0.00 | 0.00 | 70 | 1010.0 |
| 20260905192034 | 75 | 305 | 5.0 | 9.0 | 0.00 | 0.00 | 0.00 | 71 | 1010.0 |
| 20260905191556 | 76 | 305 | 7.0 | 10.0 | 0.00 | 0.00 | 0.00 | 69 | 1010.0 |
| 20260905191031 | 76 | 311 | 6.0 | 10.0 | 0.00 | 0.00 | 0.00 | 70 | 1009.9 |
| 20260905190534 | 76 | 315 | 6.0 | 9.0 | 0.00 | 0.00 | 0.00 | 69 | 1009.9 |
| 20260905190132 | 76 | 316 | 6.0 | 9.0 | 0.00 | 0.00 | 0.00 | 68 | 1010.0 |
| 20260905185535 | 76 | 324 | 6.0 | 9.0 | 0.00 | 0.00 | 0.00 | 70 | 1010.0 |
| 20260905185032 | 76 | 326 | 5.0 | 6.0 | 0.00 | 0.00 | 0.00 | 68 | 1009.8 |
| 20260905184620 | 76 | 326 | 4.0 | 6.0 | 0.00 | 0.00 | 0.00 | 67 | 1009.9 |
| 20260905184031 | 76 | 326 | 5.0 | 9.0 | 0.00 | 0.00 | 0.00 | 68 | 1009.9 |
| 20260905183532 | 75 | 326 | 7.0 | 9.0 | 0.00 | 0.00 | 0.00 | 67 | 1009.9 |
| 20260905183057 | 75 | 326 | 6.0 | 8.0 | 0.00 | 0.00 | 0.00 | 67 | 1009.9 |
| 20260905182531 | 75 | 326 | 5.0 | 8.0 | 0.00 | 0.00 | 0.00 | 67 | 1009.9 |
| 20260905182031 | 75 | 326 | 5.0 | 8.0 | 0.00 | 0.00 | 0.00 | 68 | 1010.0 |
| 20260905181552 | 75 | 326 | 4.0 | 6.0 | 0.00 | 0.00 | 0.00 | 68 | 1010.0 |
| 20260905181031 | 76 | 326 | 4.0 | 6.0 | 0.00 | 0.00 | 0.00 | 66 | 1010.0 |
| 20260905180531 | 76 | 326 | 4.0 | 6.0 | 0.00 | 0.00 | 0.00 | 67 | 1010.1 |
| 20260905180047 | 76 | 326 | 3.0 | 8.0 | 0.00 | 0.00 | 0.00 | 69 | 1010.2 |
| 20260905175533 | 76 | 326 | 4.0 | 8.0 | 0.00 | 0.00 | 0.00 | 69 | 1010.2 |
| 20260905175030 | 76 | 326 | 4.0 | 8.0 | 0.00 | 0.00 | 0.00 | 67 | 1010.3 |
| 20260905174554 | 76 | 326 | 4.0 | 6.0 | 0.00 | 0.00 | 0.00 | 68 | 1010.3 |
| 20260905174032 | 76 | 326 | 4.0 | 8.0 | 0.00 | 0.00 | 0.00 | 68 | 1010.2 |
| 20260905173532 | 76 | 326 | 4.0 | 8.0 | 0.00 | 0.00 | 0.00 | 69 | 1010.3 |
| 20260905173057 | 75 | 326 | 5.0 | 8.0 | 0.00 | 0.00 | 0.00 | 70 | 1010.3 |
| 20260905172531 | 75 | 326 | 4.0 | 8.0 | 0.00 | 0.00 | 0.00 | 68 | 1010.3 |
| 20260905172031 | 75 | 327 | 4.0 | 8.0 | 0.00 | 0.00 | 0.00 | 67 | 1010.3 |
| 20260905171551 | 75 | 327 | 5.0 | 8.0 | 0.00 | 0.00 | 0.00 | 67 | 1010.4 |
| 20260905171031 | 76 | 329 | 4.0 | 8.0 | 0.00 | 0.00 | 0.00 | 68 | 1010.2 |
| 20260905170531 | 75 | 329 | 4.0 | 8.0 | 0.00 | 0.00 | 0.00 | 67 | 1010.2 |
| 20260905170047 | 75 | 331 | 4.0 | 8.0 | 0.00 | 0.00 | 0.00 | 67 | 1010.1 |
| 20260905165530 | 75 | 333 | 5.0 | 8.0 | 0.00 | 0.00 | 0.00 | 67 | 1010.2 |
| 20260905165032 | 75 | 337 | 4.0 | 8.0 | 0.00 | 0.00 | 0.00 | 70 | 1010.2 |
| 20260905164550 | 75 | 338 | 4.0 | 9.0 | 0.00 | 0.00 | 0.00 | 70 | 1010.2 |
| 20260905164032 | 74 | 339 | 4.0 | 9.0 | 0.00 | 0.00 | 0.00 | 69 | 1010.2 |
| 20260905163530 | 74 | 339 | 5.0 | 8.0 | 0.00 | 0.00 | 0.00 | 70 | 1010.2 |
| 20260905163052 | 74 | 340 | 4.0 | 6.0 | 0.00 | 0.00 | 0.00 | 69 | 1010.2 |
| 20260905162532 | 74 | 340 | 3.0 | 6.0 | 0.00 | 0.00 | 0.00 | 69 | 1010.1 |
| 20260905162033 | 74 | 340 | 3.0 | 6.0 | 0.00 | 0.00 | 0.00 | 72 | 1010.1 |
| 20260905161553 | 74 | 340 | 3.0 | 6.0 | 0.00 | 0.00 | 0.00 | 72 | 1010.2 |
| 20260905161031 | 74 | 340 | 4.0 | 6.0 | 0.00 | 0.00 | 0.00 | 72 | 1010.1 |
| 20260905160531 | 74 | 342 | 4.0 | 6.0 | 0.00 | 0.00 | 0.00 | 72 | 1010.1 |
| 20260905160046 | 73 | 342 | 3.0 | 6.0 | 0.00 | 0.00 | 0.00 | 71 | 1010.2 |
| 20260905155532 | 73 | 342 | 5.0 | 6.0 | 0.00 | 0.00 | 0.00 | 71 | 1010.1 |
| 20260905155031 | 73 | 342 | 4.0 | 8.0 | 0.00 | 0.00 | 0.00 | 71 | 1010.2 |
| 20260905154547 | 73 | 343 | 5.0 | 8.0 | 0.00 | 0.00 | 0.00 | 70 | 1010.3 |